This is the latest recevied weather packets stored in our database for station/object KQ4NAL. If no packets are shown the sender has not sent any weather packets the latest 10 day(s).
| Time | Temp. | Humidity | Pressure | Rain* | Wind** | Luminosity | Snow |
|---|---|---|---|---|---|---|---|
| 1777999488 | 20.56° C | 67% | 1010.8 hPa | 0 mm | - | 310 W/m² | - |
| 1777999186 | 20° C | 67% | 1010.8 hPa | 0 mm | - | 265 W/m² | - |
| 1777998884 | 20° C | 66% | 1010.6 hPa | 0 mm | - | 282 W/m² | - |
| 1777998584 | 20° C | 66% | 1010.8 hPa | 0 mm | - | 281 W/m² | - |
| 1777998279 | 20° C | 67% | 1010.6 hPa | 0 mm | - | 299 W/m² | - |
| 1777997976 | 20° C | 67% | 1010.8 hPa | 0 mm | - | 260 W/m² | - |
| 1777997673 | 20° C | 67% | 1010.8 hPa | 0 mm | - | 209 W/m² | - |
| 1777997370 | 20° C | 66% | 1010.6 hPa | 0 mm | - | 210 W/m² | - |
| 1777997069 | 20° C | 67% | 1010.6 hPa | 0 mm | - | 180 W/m² | - |
| 1777996764 | 20° C | 67% | 1010.6 hPa | 0 mm | - | 226 W/m² | - |
| 1777996461 | 20° C | 67% | 1010.7 hPa | 0 mm | - | 337 W/m² | - |
| 1777996158 | 20° C | 68% | 1010.7 hPa | 0 mm | - | 383 W/m² | - |
| 1777995854 | 20° C | 67% | 1010.7 hPa | 0 mm | - | 392 W/m² | - |
| 1777995550 | 20° C | 67% | 1010.5 hPa | 0 mm | - | 395 W/m² | - |
| 1777995248 | 19.44° C | 66% | 1010.6 hPa | 0 mm | - | 383 W/m² | - |
| 1777994945 | 19.44° C | 67% | 1010.6 hPa | 0 mm | - | 358 W/m² | - |
| 1777994642 | 19.44° C | 68% | 1010.5 hPa | 0 mm | - | 331 W/m² | - |
| 1777994341 | 19.44° C | 68% | 1010.5 hPa | 0 mm | - | 313 W/m² | - |
| 1777994038 | 18.89° C | 68% | 1010.5 hPa | 0 mm | - | 297 W/m² | - |
| 1777993736 | 19.44° C | 69% | 1010.3 hPa | 0 mm | - | 288 W/m² | - |
| 1777993433 | 18.89° C | 70% | 1010.6 hPa | 0 mm | - | 263 W/m² | - |
| 1777993132 | 18.89° C | 70% | 1010.5 hPa | 0 mm | - | 241 W/m² | - |
| 1777992831 | 18.89° C | 70% | 1010.5 hPa | 0 mm | - | 212 W/m² | - |
| 1777992528 | 18.89° C | 70% | 1010.5 hPa | 0 mm | - | 205 W/m² | - |
| 1777992227 | 18.89° C | 71% | 1010.5 hPa | 0 mm | - | 224 W/m² | - |
* Rain latest hour (hover to see other rain measurements)
** Current wind speed in m/s (hover to see current wind gust speed)